Location: Saint-Restitut
(44.3351°N, 4.7915°E)
Time: 13:32:47
(UTC+00:00)

DMSP B5D2-2 - Pass Details

Date: 03 February 2023
Orbit: 788 x 805 km, 98.3° (Epoch: 19 March)

Event Time Altitude Azimuth Distance (km) Brightness Sun altitude
Rises 17:28:19 0° 14° (NNE) 3,330 7.0 -6.8°
Reaches altitude 10° 17:30:40 10° 16° (NNE) 2,393 6.3 -7.2°
Maximum altitude 17:35:58 80° 103° (ESE) 819 4.1 -8.2°
Drops below altitude 10° 17:41:13 10° 191° (S) 2,367 6.9 -9.1°
Sets 17:43:32 0° 192° (SSW) 3,290 7.6 -9.5°
